Weather History for Sterling, IL

Change the Weather History Date:

Thursday, May 2, 2013

  Actual Average Record
Temperature  
Mean Temperature 53 °F -  
Max Temperature 64 °F 66 °F 82 °F (2001)
Min Temperature 42 °F 45 °F 35 °F (2005)
Degree Days  
Heating Degree Days 12    
Growing Degree Days 3 (Base 50)    
Moisture  
Dew Point 43 °F    
Average Humidity 67    
Maximum Humidity 81    
Minimum Humidity 52    
Precipitation  
Precipitation 0.04 in - - ()
Sea Level Pressure  
Sea Level Pressure 30.18 in    
Wind  
Wind Speed 12 mph (NNE)    
Max Wind Speed 21 mph    
Max Gust Speed 26 mph    
Visibility 10 miles    
Events Thunderstorm    
Averages and records for this station are not official NWS values.
T = Trace of Precipitation, MM = Missing Value Source: NWS Daily Summary

Daily Weather History Graph

Daily Weather History Graph

Search for Another Location

Airport:

Trip Planner

Search our weather history database for the weather conditions in past years. The results will help you decide how hot, cold, wet, or windy it might be!

Date:

Astronomy

May. 02, 2013 Rise Set
Actual Time 5:53 AM CDT 7:58 PM CDT
Civil Twilight 5:23 AM CDT 8:28 PM CDT
Nautical Twilight 4:45 AM CDT 9:06 PM CDT
Astronomical Twilight 4:05 AM CDT 9:47 PM CDT
Moon 1:47 AM CDT (5/2) 12:41 PM CDT (5/2)
Length of Visible Light 15h 05m
Length of Day
14h 04m
Waning Gibbous, 47% of the Moon is Illuminated
May 2
Waning Gibbous
May 9
New
May 17
First Quarter
May 24
Full
May 31
Last Quarter

Hourly Weather History & Observations

Time (CDT) Temp. Windchill Dew Point Humidity Pressure Visibility Wind Dir Wind Speed Gust Speed Precip Events Conditions
12:15 AM 62.6 °F - 46.4 °F 55% 30.14 in 10.0 mi North 13.8 mph - N/A   Mostly Cloudy
12:35 AM 60.8 °F - 46.4 °F 59% 30.15 in 10.0 mi North 12.7 mph - N/A   Overcast
12:55 AM 60.8 °F - 46.4 °F 59% 30.14 in 10.0 mi NNE 12.7 mph 21.9 mph N/A   Mostly Cloudy
1:15 AM 59.0 °F - 46.4 °F 63% 30.14 in 10.0 mi NNE 8.1 mph 16.1 mph N/A   Partly Cloudy
1:35 AM 59.0 °F - 46.4 °F 63% 30.14 in 10.0 mi NNE 13.8 mph - N/A   Clear
1:55 AM 57.2 °F - 46.4 °F 67% 30.13 in 10.0 mi NNE 12.7 mph - N/A   Clear
2:15 AM 57.2 °F - 46.4 °F 67% 30.13 in 10.0 mi NNE 10.4 mph 16.1 mph N/A   Scattered Clouds
2:35 AM 57.2 °F - 46.4 °F 67% 30.13 in 10.0 mi NE 12.7 mph 18.4 mph N/A   Mostly Cloudy
2:55 AM 55.4 °F - 46.4 °F 72% 30.12 in 10.0 mi ENE 12.7 mph - N/A   Partly Cloudy
3:15 AM 55.4 °F - 48.2 °F 77% 30.12 in 10.0 mi ENE 11.5 mph - N/A   Partly Cloudy
3:35 AM 55.4 °F - 46.4 °F 72% 30.13 in 10.0 mi NNE 6.9 mph - N/A   Clear
3:55 AM 55.4 °F - 48.2 °F 77% 30.14 in 10.0 mi North 5.8 mph - N/A   Clear
4:15 AM 53.6 °F - 46.4 °F 77% 30.14 in 10.0 mi North 5.8 mph - N/A   Clear
4:35 AM 53.6 °F - 44.6 °F 72% 30.15 in 10.0 mi NNE 10.4 mph - N/A   Clear
4:55 AM 51.8 °F - 44.6 °F 76% 30.15 in 10.0 mi North 6.9 mph - N/A   Clear
5:15 AM 51.8 °F - 44.6 °F 76% 30.16 in 10.0 mi NE 10.4 mph 16.1 mph N/A   Clear
5:35 AM 51.8 °F - 42.8 °F 71% 30.16 in 10.0 mi NNE 5.8 mph 18.4 mph N/A   Clear
5:55 AM 50.0 °F - 42.8 °F 76% 30.17 in 10.0 mi NNE 12.7 mph 17.3 mph N/A   Clear
6:15 AM 50.0 °F - 42.8 °F 76% 30.17 in 10.0 mi NNE 13.8 mph 18.4 mph N/A   Clear
6:35 AM 50.0 °F - 41.0 °F 71% 30.18 in 10.0 mi NNE 10.4 mph 17.3 mph N/A   Scattered Clouds
6:55 AM 50.0 °F - 41.0 °F 71% 30.19 in 10.0 mi NE 11.5 mph 16.1 mph N/A   Scattered Clouds
7:15 AM 50.0 °F - 41.0 °F 71% 30.20 in 10.0 mi NE 11.5 mph - N/A   Partly Cloudy
7:35 AM 51.8 °F - 39.2 °F 62% 30.20 in 10.0 mi NNE 8.1 mph - N/A   Partly Cloudy
7:55 AM 51.8 °F - 41.0 °F 67% 30.21 in 10.0 mi NNE 10.4 mph - N/A   Scattered Clouds
8:15 AM 53.6 °F - 41.0 °F 62% 30.23 in 10.0 mi North 10.4 mph - N/A   Overcast
8:35 AM 53.6 °F - 39.2 °F 58% 30.23 in 10.0 mi North 12.7 mph - N/A   Mostly Cloudy
8:55 AM 55.4 °F - 41.0 °F 58% 30.23 in 10.0 mi North 12.7 mph 17.3 mph N/A   Partly Cloudy
9:15 AM 55.4 °F - 41.0 °F 58% 30.23 in 10.0 mi NNE 16.1 mph 24.2 mph N/A   Clear
9:35 AM 55.4 °F - 41.0 °F 58% 30.23 in 10.0 mi NE 12.7 mph 20.7 mph N/A   Scattered Clouds
9:55 AM 57.2 °F - 42.8 °F 59% 30.22 in 10.0 mi NE 16.1 mph 20.7 mph N/A   Scattered Clouds
10:15 AM 55.4 °F - 41.0 °F 58% 30.26 in 10.0 mi North 10.4 mph - N/A   Mostly Cloudy
10:35 AM 59.0 °F - 42.8 °F 55% 30.24 in 10.0 mi North 15.0 mph 19.6 mph N/A   Mostly Cloudy
10:55 AM 59.0 °F - 42.8 °F 55% 30.23 in 10.0 mi NNE 12.7 mph 18.4 mph N/A   Mostly Cloudy
11:15 AM 57.2 °F - 41.0 °F 55% 30.20 in 10.0 mi NNE 17.3 mph 26.5 mph N/A   Partly Cloudy
11:35 AM 60.8 °F - 42.8 °F 52% 30.19 in 10.0 mi NNE 17.3 mph 23.0 mph N/A   Clear
11:55 AM 60.8 °F - 44.6 °F 55% 30.19 in 10.0 mi NE 15.0 mph 20.7 mph N/A   Clear
12:15 PM 62.6 °F - 44.6 °F 52% 30.21 in 10.0 mi NNE 11.5 mph 16.1 mph N/A   Clear
12:35 PM 60.8 °F - 44.6 °F 55% 30.22 in 10.0 mi NE 8.1 mph - N/A   Scattered Clouds
12:55 PM 60.8 °F - 44.6 °F 55% 30.21 in 10.0 mi ENE 13.8 mph 19.6 mph N/A   Mostly Cloudy
1:15 PM 60.8 °F - 44.6 °F 55% 30.19 in 10.0 mi NNE 11.5 mph 16.1 mph N/A   Scattered Clouds
1:35 PM 64.4 °F - 46.4 °F 52% 30.18 in 10.0 mi North 12.7 mph - N/A   Mostly Cloudy
1:55 PM 64.4 °F - 46.4 °F 52% 30.18 in 10.0 mi North 11.5 mph 19.6 mph N/A   Scattered Clouds
2:15 PM 62.6 °F - 46.4 °F 55% 30.19 in 10.0 mi North 11.5 mph - N/A   Mostly Cloudy
2:35 PM 60.8 °F - 44.6 °F 55% 30.19 in 10.0 mi North 10.4 mph - N/A   Overcast
2:55 PM 59.0 °F - 46.4 °F 63% 30.17 in 10.0 mi North 11.5 mph 16.1 mph N/A   Overcast
3:15 PM 60.8 °F - 48.2 °F 63% 30.18 in 10.0 mi North 11.5 mph - N/A   Overcast
3:35 PM 60.8 °F - 50.0 °F 68% 30.17 in 10.0 mi NNE 13.8 mph - N/A   Overcast
3:55 PM 60.8 °F - 48.2 °F 63% 30.17 in 10.0 mi NNE 11.5 mph - N/A   Overcast
4:15 PM 59.0 °F - 46.4 °F 63% 30.18 in 10.0 mi NNE 12.7 mph - N/A   Overcast
4:35 PM 57.2 °F - 44.6 °F 63% 30.18 in 10.0 mi NW 12.7 mph 16.1 mph N/A Thunderstorm Overcast
4:55 PM 53.6 °F - 46.4 °F 77% 30.17 in 9.0 mi North 15.0 mph - N/A Thunderstorm Overcast
5:15 PM 51.8 °F - 44.6 °F 76% 30.18 in 10.0 mi North 16.1 mph 24.2 mph 0.01 in   Overcast
5:35 PM 51.8 °F - 44.6 °F 76% 30.18 in 10.0 mi NNW 17.3 mph 21.9 mph 0.01 in   Overcast
5:55 PM 51.8 °F - 42.8 °F 71% 30.18 in 10.0 mi NNW 20.7 mph 25.3 mph 0.01 in   Overcast
6:15 PM 50.0 °F - 42.8 °F 76% 30.18 in 10.0 mi North 17.3 mph 24.2 mph N/A   Overcast
6:35 PM 50.0 °F - 41.0 °F 71% 30.18 in 10.0 mi NNW 13.8 mph - N/A   Overcast
6:55 PM 48.2 °F - 41.0 °F 76% 30.18 in 10.0 mi NNW 18.4 mph 24.2 mph N/A   Overcast
7:15 PM 48.2 °F - 39.2 °F 71% 30.19 in 10.0 mi North 16.1 mph 23.0 mph N/A   Overcast
7:35 PM 48.2 °F - 39.2 °F 71% 30.19 in 10.0 mi North 12.7 mph - N/A   Overcast
7:55 PM 48.2 °F - 39.2 °F 71% 30.19 in 10.0 mi North 13.8 mph - N/A   Overcast
8:15 PM 46.4 °F 40.7 °F 39.2 °F 76% 30.19 in 10.0 mi North 12.7 mph - N/A   Overcast
8:35 PM 46.4 °F 38.7 °F 39.2 °F 76% 30.20 in 10.0 mi North 20.7 mph 25.3 mph N/A   Overcast
8:55 PM 46.4 °F 41.1 °F 37.4 °F 71% 30.20 in 10.0 mi North 11.5 mph 25.3 mph N/A   Overcast
9:15 PM 44.6 °F 37.8 °F 37.4 °F 76% 30.20 in 10.0 mi North 15.0 mph 26.5 mph N/A   Overcast
9:35 PM 44.6 °F 37.4 °F 37.4 °F 76% 30.20 in 10.0 mi North 16.1 mph 23.0 mph N/A   Overcast
9:55 PM 44.6 °F 38.1 °F 37.4 °F 76% 30.20 in 10.0 mi North 13.8 mph 23.0 mph N/A   Overcast
10:15 PM 44.6 °F 37.8 °F 37.4 °F 76% 30.20 in 10.0 mi North 15.0 mph 21.9 mph N/A   Overcast
10:35 PM 44.6 °F 38.4 °F 37.4 °F 76% 30.19 in 10.0 mi NNE 12.7 mph 23.0 mph N/A   Overcast
10:55 PM 44.6 °F 36.9 °F 37.4 °F 76% 30.19 in 10.0 mi NNE 18.4 mph 25.3 mph N/A   Overcast
11:15 PM 44.6 °F 38.4 °F 37.4 °F 76% 30.21 in 10.0 mi NNE 12.7 mph 21.9 mph N/A   Overcast
11:35 PM 42.8 °F 35.1 °F 37.4 °F 81% 30.19 in 5.0 mi NNE 16.1 mph 23.0 mph 0.02 in   Overcast
11:55 PM 42.8 °F 35.8 °F 37.4 °F 81% 30.16 in 6.0 mi North 13.8 mph 21.9 mph 0.03 in   Overcast